Location: Newark
(9.2300°N, 12.4600°E)
Time: 04:18:49
(UTC+00:00)

Envisat - Visible Passes

Search period start: 12 December 2019 00:00
Search period end: 22 December 2019 00:00
Orbit: 764 x 766 km, 98.1° (Epoch: 11 December)

Date Brightness Start Highest point End Pass type
(mag) Time Alt. Az. Time Alt. Az. Time Alt. Az.
12 Dec 4.1 17:53:22 10° S 17:58:12 46° WSW 18:03:02 10° NNW visible
13 Dec 6.1 04:42:16 10° ENE 04:45:24 16° E 04:48:30 10° SE visible
13 Dec 3.0 17:16:31 10° SSE 17:21:31 62° ENE 17:26:30 10° N visible
14 Dec 5.5 18:19:47 10° SSW 18:23:39 22° W 18:27:33 10° NW visible
15 Dec 3.5 17:41:56 10° S 17:46:56 63° WSW 17:51:57 10° NNW visible
16 Dec 6.4 04:32:22 10° E 04:34:07 12° E 04:35:52 10° ESE visible
16 Dec 6.4 18:48:41 10° WSW 18:49:08 10° W 18:49:35 10° W visible
17 Dec 5.0 18:07:59 10° SSW 18:12:23 30° W 18:16:47 10° NW visible
18 Dec 5.7 04:55:29 10° NE 04:59:35 25° E 05:03:42 10° SSE visible
18 Dec 3.1 17:30:36 10° S 17:35:41 86° WSW 17:40:46 10° NNW visible
19 Dec 6.0 18:35:10 10° SW 18:37:51 14° W 18:40:34 10° WNW visible
20 Dec 4.4 17:56:23 10° S 18:01:07 41° W 18:05:52 10° NNW visible
21 Dec 6.0 04:44:52 10° ENE 04:48:19 18° E 04:51:46 10° SE visible
21 Dec 3.0 17:19:24 10° SSE 17:24:26 70° ENE 17:29:28 10° N visible
